K7OLI-13 Weather Reports


time (UTC)temp
C
wind
direction
speed
KPH
gust
KPH
rain 1hr
cm
rain 24hr
cm
rain mn
cm
humidity
%
barometer
mb
20260509050025 15 191 9.7 11.3 0.00 0.00 0.00 78 1018.1
20260509045050 15 231 6.4 9.7 0.00 0.00 0.00 78 1018.1
20260509044040 15 212 4.8 8.0 0.00 0.00 0.00 77 1018.1
20260509043029 15 240 6.4 9.7 0.00 0.00 0.00 76 1018.1
20260509042037 15 224 6.4 8.0 0.00 0.00 0.00 75 1018.1
20260509041026 16 220 6.4 11.3 0.00 0.00 0.00 74 1018.1
20260509040034 16 235 6.4 9.7 0.00 0.00 0.00 73 1018.1
20260509035023 16 238 6.4 9.7 0.00 0.00 0.00 72 1018.1
20260509034032 16 229 8.0 11.3 0.00 0.00 0.00 71 1018.1
20260509033020 17 222 9.7 14.5 0.00 0.00 0.00 69 1018.1
20260509032019 17 240 11.3 17.7 0.00 0.00 0.00 68 1018.1
20260509031036 17 209 9.7 11.3 0.00 0.00 0.00 66 1017.4
20260509030026 18 221 11.3 17.7 0.00 0.00 0.00 64 1017.1
20260509025033 19 221 9.7 12.9 0.00 0.00 0.00 61 1017.1
20260509024043 19 231 9.7 12.9 0.00 0.00 0.00 60 1017.1
20260509023031 20 236 8.0 11.3 0.00 0.00 0.00 57 1017.2
20260509022040 20 232 9.7 12.9 0.00 0.00 0.00 57 1017.2
20260509021028 20 210 6.4 11.3 0.00 0.00 0.00 56 1017.1
20260509020036 20 210 8.0 11.3 0.00 0.00 0.00 56 1017.1
20260509015045 20 222 4.8 6.4 0.00 0.00 0.00 55 1017.1
20260509014033 20 12 1.6 6.4 0.00 0.00 0.00 54 1017.1
20260509013023 21 219 8.0 11.3 0.00 0.00 0.00 54 1017.1
20260509012021 20 218 11.3 12.9 0.00 0.00 0.00 54 1018.1
20260509011019 21 230 8.0 14.5 0.00 0.00 0.00 53 1018.1
20260509010033 20 136 4.8 8.0 0.00 0.00 0.00 54 1018.1
20260509005035 20 184 4.8 8.0 0.00 0.00 0.00 54 1018.1
20260509004025 20 224 9.7 14.5 0.00 0.00 0.00 54 1018.1
20260509003033 20 203 9.7 12.9 0.00 0.00 0.00 54 1018.1
20260509002024 21 227 9.7 14.5 0.00 0.00 0.00 53 1018.1
20260509001033 20 180 6.4 12.9 0.00 0.00 0.00 54 1018.1
20260509000019 20 238 12.9 17.7 0.00 0.00 0.00 53 1018.1
20260508235027 20 222 11.3 16.1 0.00 0.00 0.00 53 1018.1
20260508234055 20 231 9.7 12.9 0.00 0.00 0.00 52 1018.1
20260508233027 21 185 8.0 14.5 0.00 0.00 0.00 51 1018.1
20260508232025 20 248 8.0 11.3 0.00 0.00 0.00 52 1018.1
20260508231041 21 223 12.9 19.3 0.00 0.00 0.00 51 1018.1
20260508230029 21 199 8.0 11.3 0.00 0.00 0.00 50 1018.1
20260508225019 20 115 6.4 8.0 0.00 0.00 0.00 50 1018.1
20260508224027 20 179 6.4 11.3 0.00 0.00 0.00 50 1018.1
20260508223055 20 210 4.8 8.0 0.00 0.00 0.00 50 1018.1
20260508222025 20 140 9.7 11.3 0.00 0.00 0.00 49 1018.1
20260508221032 20 190 6.4 11.3 0.00 0.00 0.00 48 1018.1
20260508220025 20 201 9.7 12.9 0.00 0.00 0.00 49 1018.1
20260508215029 20 219 4.8 8.0 0.00 0.00 0.00 49 1018.1
20260508214037 20 198 9.7 14.5 0.00 0.00 0.00 52 1018.1
20260508213026 18 171 9.7 14.5 0.00 0.00 0.00 51 1018.1
20260508212025 20 218 9.7 14.5 0.00 0.00 0.00 50 1018.1
20260508211025 19 182 8.0 11.3 0.00 0.00 0.00 50 1018.1
20260508210033 18 208 6.4 11.3 0.00 0.00 0.00 51 1018.1
20260508205020 18 155 8.0 11.3 0.00 0.00 0.00 51 1018.1
20260508204027 18 168 8.0 14.5 0.00 0.00 0.00 52 1018.9
20260508203036 18 191 8.0 14.5 0.00 0.00 0.00 52 1019.1
20260508202027 18 93 8.0 11.3 0.00 0.00 0.00 53 1019.1
20260508201053 18 94 8.0 12.9 0.00 0.00 0.00 54 1019.1
20260508200025 18 192 8.0 12.9 0.00 0.00 0.00 53 1019.1
20260508195030 18 155 6.4 12.9 0.00 0.00 0.00 52 1019.1
20260508194020 18 152 6.4 11.3 0.00 0.00 0.00 54 1019.1
20260508193027 17 189 9.7 16.1 0.00 0.00 0.00 55 1019.1
20260508192027 16 139 6.4 11.3 0.00 0.00 0.00 57 1019.1
20260508191025 17 131 9.7 11.3 0.00 0.00 0.00 56 1019.1
20260508190033 16 205 9.7 11.3 0.00 0.00 0.00 57 1019.1
20260508185041 16 198 8.0 12.9 0.00 0.00 0.00 61 1019.1
20260508184030 15 174 6.4 9.7 0.00 0.00 0.00 61 1019.1
20260508183019 15 185 11.3 16.1 0.00 0.00 0.00 62 1019.1
20260508182028 15 279 4.8 11.3 0.00 0.00 0.00 61 1019.1
20260508181035 16 134 8.0 11.3 0.00 0.00 0.00 61 1019.1
20260508180025 15 174 9.7 14.5 0.00 0.00 0.00 65 1019.1
20260508175031 15 164 12.9 19.3 0.00 0.00 0.00 64 1019.1
20260508174041 15 156 9.7 16.1 0.00 0.00 0.00 64 1019.1
20260508173029 13 183 8.0 12.9 0.00 0.00 0.00 70 1019.1
20260508172019 13 185 12.9 16.1 0.00 0.00 0.00 70 1019.1
20260508171019 13 182 9.7 12.9 0.00 0.00 0.00 70 1019.1
20260508170034 12 175 11.3 12.9 0.00 0.00 0.00 71 1019.1
20260508165023 12 173 11.3 14.5 0.00 0.00 0.00 72 1018.1
20260508164031 13 151 8.0 12.9 0.00 0.00 0.00 72 1018.1
20260508163020 13 131 8.0 14.5 0.00 0.00 0.00 71 1018.1
20260508162033 12 150 11.3 12.9 0.00 0.00 0.00 73 1018.1
20260508161021 12 130 9.7 12.9 0.00 0.00 0.00 74 1018.1
20260508160025 12 124 11.3 12.9 0.00 0.00 0.00 75 1018.1
20260508155053 12 116 9.7 14.5 0.00 0.00 0.00 77 1018.1
20260508154022 12 136 9.7 12.9 0.00 0.00 0.00 78 1018.1
20260508153031 12 132 9.7 12.9 0.00 0.00 0.00 78 1018.1
20260508152020 11 99 9.7 16.1 0.00 0.00 0.00 81 1018.1
20260508151022 10 86 9.7 12.9 0.00 0.00 0.00 84 1018.1
20260508150055 10 107 8.0 12.9 0.00 0.00 0.00 84 1018.1
20260508145025 10 97 6.4 11.3 0.00 0.00 0.00 83 1018.1
20260508144033 10 89 8.0 9.7 0.00 0.00 0.00 83 1018.1
20260508143042 11 110 6.4 9.7 0.00 0.00 0.00 79 1018.2
20260508142033 11 119 4.8 9.7 0.00 0.00 0.00 80 1018.2
20260508141019 10 154 8.0 9.7 0.00 0.00 0.00 81 1018.1
20260508140027 10 159 8.0 11.3 0.00 0.00 0.00 83 1018.2
20260508135035 10 159 6.4 8.0 0.00 0.00 0.00 85 1017.1
20260508134024 9 150 6.4 8.0 0.00 0.00 0.00 86 1017.1
20260508133032 9 156 6.4 11.3 0.00 0.00 0.00 86 1017.1
20260508132022 8 143 8.0 12.9 0.00 0.00 0.00 87 1017.1
20260508131025 8 155 6.4 9.7 0.00 0.00 0.00 87 1016.3
20260508130018 8 170 4.8 8.0 0.00 0.00 0.00 86 1016.1
20260508125027 9 165 9.7 12.9 0.00 0.00 0.00 86
20260508124055 9 166 8.0 11.3 0.00 0.00 0.00 86
20260508123024 9 167 4.8 8.0 0.00 0.00 0.00 85 1016.1
20260508122034 9 176 6.4 9.7 0.00 0.00 0.00 84
20260508121025 10 168 6.4 12.9 0.00 0.00 0.00 84
20260508120029 10 181 8.0 11.3 0.00 0.00 0.00 84 1016.2
20260508115019 10 182 9.7 16.1 0.00 0.00 0.00 84 1016.2
20260508114027 10 184 11.3 19.3 0.00 0.00 0.00 84 1015.4
20260508113034 10 203 8.0 9.7 0.00 0.00 0.00 84 1015.1
20260508112025 10 196 8.0 9.7 0.00 0.00 0.00 84 1015.2
20260508111025 10 217 6.4 8.0 0.00 0.00 0.00 84 1015.2
20260508110022 10 197 6.4 8.0 0.00 0.00 0.00 84 1015.2
20260508105049 10 210 3.2 6.4 0.00 0.00 0.00 83 1015.2
20260508104018 10 203 6.4 6.4 0.00 0.00 0.00 83 1015.2
20260508103027 10 200 8.0 11.3 0.00 0.00 0.00 83 1015.1
20260508102037 10 186 9.7 12.9 0.00 0.00 0.00 83 1015.2
20260508101026 10 199 8.0 11.3 0.00 0.00 0.00 83 1014.4
20260508100033 10 177 8.0 11.3 0.00 0.00 0.00 83 1014.1
20260508095021 10 198 9.7 11.3 0.00 0.00 0.00 82 1014.1
20260508094109 10 203 8.0 9.7 0.00 0.00 0.00 80 1014.1
20260508093037 10 206 6.4 9.7 0.00 0.00 0.00 79 1014.1
20260508092026 10 181 4.8 6.4 0.00 0.00 0.00 77 1014.1
20260508091027 10 176 4.8 8.0 0.00 0.00 0.00 76 1014.2
20260508090045 10 203 6.4 11.3 0.00 0.00 0.00 76 1014.1
20260508085032 10 202 8.0 9.7 0.00 0.00 0.00 76 1014.1
20260508084021 11 207 9.7 12.9 0.00 0.00 0.00 76 1014.1
20260508083028 11 211 8.0 11.3 0.00 0.00 0.00 76 1014.1
20260508082202 11 227 8.0 12.9 0.00 0.00 0.00 77 1014.1
20260508081028 11 218 8.0 9.7 0.00 0.00 0.00 76 1014.1
20260508080034 11 220 9.7 14.5 0.00 0.00 0.00 75 1014.1
20260508075023 11 219 6.4 8.0 0.00 0.00 0.00 76 1014.1
20260508074111 11 196 6.4 8.0 0.00 0.00 0.00 76 1013.3
20260508073021 11 205 4.8 6.4 0.00 0.00 0.00 75 1013.1
20260508072028 11 198 6.4 8.0 0.00 0.00 0.00 75 1013.1
20260508071030 11 204 8.0 9.7 0.00 0.00 0.00 74 1013.1
20260508070040 12 204 6.4 8.0 0.00 0.00 0.00 73 1013.1
20260508065033 12 201 12.9 14.5 0.00 0.00 0.00 72 1013.1
20260508064022 12 192 12.9 16.1 0.00 0.00 0.00 72 1013.1
20260508063030 12 199 11.3 12.9 0.00 0.00 0.00 72 1013.1
20260508062019 12 214 11.3 16.1 0.00 0.00 0.00 72 1013.1
20260508061027 12 216 9.7 12.9 0.00 0.00 0.00 72 1013.1
20260508060021 12 204 9.7 14.5 0.00 0.00 0.00 72 1013.1
20260508055025 13 194 11.3 14.5 0.00 0.00 0.00 70 1013.1
20260508054032 13 200 12.9 17.7 0.00 0.00 0.00 69 1013.1
20260508053021 13 206 11.3 16.1 0.00 0.00 0.00 69 1013.1
20260508052029 13 214 9.7 14.5 0.00 0.00 0.00 69 1013.1
20260508051033 14 204 12.9 14.5 0.00 0.00 0.00 68 1013.1